| time (UTC) | temp F | wind direction | speed knots | gust knots | rain 1hr in | rain 24hr in | rain mn in | humidity % | barometer mb |
| 20260504193024 | 78 | 112 | 1.7 | 4.3 | 0.02 | 0.00 | 0.04 | 86 | 1009.7 |
| 20260504192021 | 78 | 202 | 0.0 | 0.0 | 0.02 | 0.00 | 0.04 | 85 | 1009.2 |
| 20260504191021 | 78 | 22 | 2.6 | 7.0 | 0.02 | 0.00 | 0.04 | 87 | 1009.8 |
| 20260504190019 | 77 | 225 | 0.0 | 0.0 | 0.02 | 0.00 | 0.04 | 85 | 1009.8 |
| 20260504185017 | 78 | 225 | 0.0 | 0.0 | 0.02 | 0.00 | 0.04 | 84 | 1009.9 |
| 20260504184015 | 78 | 0 | 1.7 | 4.3 | 0.02 | 0.00 | 0.04 | 84 | 1010.0 |
| 20260504183007 | 78 | 90 | 2.6 | 7.0 | 0.02 | 0.00 | 0.04 | 85 | 1009.9 |
| 20260504182005 | 78 | 90 | 8.7 | 20.0 | 0.02 | 0.00 | 0.04 | 85 | 1010.0 |
| 20260504181003 | 79 | 0 | 0.0 | 0.0 | 0.02 | 0.00 | 0.04 | 83 | 1010.4 |
| 20260504180002 | 78 | 22 | 0.0 | 0.0 | 0.02 | 0.00 | 0.04 | 84 | 1010.5 |
| 20260504175008 | 78 | 22 | 0.9 | 3.5 | 0.02 | 0.00 | 0.04 | 83 | 1010.9 |
| 20260504174001 | 77 | 0 | 0.0 | 0.0 | 0.02 | 0.00 | 0.02 | 83 | 1010.9 |
| 20260504173000 | 77 | 225 | 0.0 | 0.0 | 0.01 | 0.00 | 0.02 | 83 | 1011.1 |
| 20260504172000 | 79 | 22 | 2.6 | 7.0 | 0.01 | 0.00 | 0.02 | 83 | 1011.5 |
| 20260504170958 | 78 | 90 | 0.0 | 0.0 | 0.01 | 0.00 | 0.00 | 82 | 1011.6 |
| 20260504150934 | 86 | 22 | 0.0 | 0.0 | 0.00 | 0.00 | 0.00 | 85 | 1011.9 |
| 20260504140911 | 87 | 112 | 0.0 | 0.0 | 0.00 | 0.00 | 0.00 | 86 | 1010.6 |
| 20260504081014 | 95 | 67 | 0.0 | 0.0 | 0.00 | 0.00 | 0.00 | 74 | 1007.9 |
| 20260504045937 | 98 | 112 | 2.6 | 6.1 | 0.00 | 0.00 | 0.00 | 76 | 1010.6 |
| 20260504044936 | 97 | 315 | 5.2 | 13.0 | 0.00 | 0.00 | 0.00 | 76 | 1011.0 |
| 20260504043935 | 97 | 202 | 5.2 | 12.2 | 0.00 | 0.00 | 0.00 | 76 | 1011.0 |
| 20260504042932 | 96 | 112 | 6.1 | 13.0 | 0.00 | 0.00 | 0.00 | 75 | 1011.1 |
| 20260504041931 | 98 | 0 | 5.2 | 13.0 | 0.00 | 0.00 | 0.00 | 76 | 1011.3 |
| 20260504040931 | 97 | 0 | 6.1 | 14.8 | 0.00 | 0.00 | 0.00 | 73 | 1011.1 |
| 20260504035929 | 98 | 67 | 12.2 | 28.7 | 0.00 | 0.00 | 0.00 | 72 | 1011.4 |
| 20260504034928 | 98 | 67 | 17.4 | 39.1 | 0.00 | 0.00 | 0.00 | 74 | 1011.4 |
| 20260504033926 | 98 | 67 | 4.3 | 11.3 | 0.00 | 0.00 | 0.00 | 74 | 1011.5 |
| 20260504032923 | 97 | 0 | 3.5 | 8.7 | 0.00 | 0.00 | 0.00 | 74 | 1011.8 |
| 20260504031921 | 96 | 112 | 2.6 | 5.2 | 0.00 | 0.00 | 0.00 | 74 | 1011.6 |
| 20260504030920 | 95 | 0 | 10.4 | 23.5 | 0.00 | 0.00 | 0.00 | 74 | 1011.8 |
| 20260504025918 | 95 | 0 | 26.1 | 58.2 | 0.00 | 0.00 | 0.00 | 74 | 1011.8 |
| 20260504024912 | 96 | 67 | 6.1 | 13.0 | 0.00 | 0.00 | 0.00 | 74 | 1011.7 |
| 20260504023911 | 96 | 112 | 4.3 | 11.3 | 0.00 | 0.00 | 0.00 | 75 | 1011.7 |
| 20260504022909 | 97 | 67 | 4.3 | 9.6 | 0.00 | 0.00 | 0.00 | 76 | 1011.5 |
| 20260504021906 | 96 | 112 | 4.3 | 10.4 | 0.00 | 0.00 | 0.00 | 75 | 1011.5 |
| 20260504020906 | 96 | 112 | 3.5 | 7.8 | 0.00 | 0.00 | 0.00 | 76 | 1011.4 |
| 20260504014927 | 95 | 67 | 4.3 | 9.6 | 0.00 | 0.00 | 0.00 | 76 | 1011.5 |
| 20260504013926 | 95 | 112 | 7.8 | 18.2 | 0.00 | 0.00 | 0.00 | 77 | 1011.5 |
| 20260504012924 | 95 | 202 | 7.8 | 17.4 | 0.00 | 0.00 | 0.00 | 78 | 1011.5 |
| 20260504011926 | 96 | 202 | 1.7 | 5.2 | 0.00 | 0.00 | 0.00 | 78 | 1011.3 |
| 20260504010922 | 96 | 67 | 11.3 | 26.1 | 0.00 | 0.00 | 0.00 | 78 | 1011.1 |
| 20260504005921 | 99 | 67 | 0.0 | 0.0 | 0.00 | 0.00 | 0.00 | 79 | 1011.1 |
| 20260504004912 | 102 | 112 | 3.5 | 7.8 | 0.00 | 0.00 | 0.00 | 80 | 1011.0 |
| 20260504003910 | 97 | 112 | 1.7 | 4.3 | 0.00 | 0.00 | 0.00 | 80 | 1010.8 |
| 20260504002907 | 96 | 0 | 5.2 | 11.3 | 0.00 | 0.00 | 0.00 | 81 | 1010.6 |
| 20260504001907 | 91 | 315 | 0.9 | 1.7 | 0.00 | 0.00 | 0.00 | 81 | 1010.6 |
| 20260504000907 | 93 | 315 | 7.0 | 16.5 | 0.00 | 0.00 | 0.00 | 82 | 1010.5 |
| 20260503235103 | 91 | 67 | 4.3 | 10.4 | 0.00 | 0.00 | 0.00 | 82 | 1010.1 |
| 20260503234059 | 89 | 67 | 3.5 | 7.8 | 0.00 | 0.00 | 0.00 | 81 | 1009.8 |
| 20260503233058 | 87 | 315 | 0.9 | 3.5 | 0.00 | 0.00 | 0.00 | 82 | 1009.8 |
| 20260503232058 | 86 | 315 | 0.0 | 0.0 | 0.00 | 0.00 | 0.00 | 81 | 1009.7 |
| 20260503231056 | 86 | 0 | 14.8 | 33.0 | 0.00 | 0.00 | 0.00 | 81 | 1009.6 |
| 20260503230055 | 86 | 67 | 7.0 | 15.6 | 0.00 | 0.00 | 0.00 | 81 | 1009.5 |
| 20260503225053 | 86 | 67 | 3.5 | 7.8 | 0.00 | 0.00 | 0.00 | 81 | 1009.4 |
| 20260503224052 | 86 | 202 | 7.8 | 17.4 | 0.00 | 0.00 | 0.00 | 81 | 1009.4 |
| 20260503223051 | 86 | 67 | 0.9 | 1.7 | 0.00 | 0.00 | 0.00 | 81 | 1009.3 |
| 20260503222049 | 86 | 67 | 2.6 | 6.1 | 0.00 | 0.00 | 0.00 | 81 | 1009.2 |
| 20260503221048 | 86 | 67 | 0.0 | 0.9 | 0.00 | 0.00 | 0.00 | 81 | 1009.1 |
| 20260503220043 | 86 | 67 | 0.0 | 0.0 | 0.00 | 0.00 | 0.00 | 82 | 1009.1 |
| 20260503215041 | 87 | 67 | 0.0 | 0.0 | 0.00 | 0.00 | 0.00 | 81 | 1009.0 |
| 20260503214040 | 87 | 67 | 0.0 | 0.0 | 0.00 | 0.00 | 0.00 | 81 | 1009.0 |
| 20260503213039 | 87 | 202 | 7.0 | 16.5 | 0.00 | 0.00 | 0.00 | 81 | 1009.1 |
| 20260503212038 | 86 | 67 | 2.6 | 6.1 | 0.00 | 0.00 | 0.00 | 81 | 1009.0 |
| 20260503211042 | 87 | 67 | 0.0 | 0.9 | 0.00 | 0.00 | 0.00 | 81 | 1009.1 |
| 20260503210037 | 87 | 67 | 0.9 | 2.6 | 0.00 | 0.00 | 0.00 | 82 | 1009.0 |
| 20260503205034 | 87 | 112 | 1.7 | 5.2 | 0.00 | 0.00 | 0.00 | 82 | 1009.0 |
| 20260503204032 | 87 | 67 | 2.6 | 5.2 | 0.00 | 0.00 | 0.00 | 83 | 1009.0 |
| 20260503203055 | 86 | 112 | 2.6 | 6.1 | 0.00 | 0.00 | 0.00 | 82 | 1009.1 |
| 20260503202030 | 87 | 112 | 6.1 | 14.8 | 0.00 | 0.00 | 0.00 | 82 | 1009.1 |
| 20260503201027 | 87 | 0 | 2.6 | 6.1 | 0.00 | 0.00 | 0.00 | 81 | 1008.9 |
| 20260503200021 | 87 | 202 | 7.8 | 19.1 | 0.00 | 0.00 | 0.00 | 82 | 1009.0 |
| 20260503195020 | 87 | 67 | 2.6 | 7.0 | 0.00 | 0.00 | 0.00 | 82 | 1009.1 |
| 20260503194019 | 87 | 0 | 2.6 | 6.1 | 0.00 | 0.00 | 0.00 | 84 | 1009.3 |